プライン彗星

C/2020 H2 ( Pruyne )

English version
Home page
Updated on August 15, 2020

---------------------------------------------------------------------

・ プロフィール

発見日 2020年4月26日
発見光度 16.2等
発見者 Theodore A. Pruyne (Catalina Sky Survey)

・ 写真集

・ 軌道要素

Epoch 2020 Apr. 21.0 TT = JDT 2458960.5
T 2020 Apr. 27.58832 TT                                 Rudenko
q   0.8336116            (2000.0)            P               Q
z  +0.0054687      Peri.   26.68975     -0.13693798     -0.56815303
 +/-0.0001203      Node   277.63395     -0.99016988     +0.05495020
e   0.9954413      Incl.  125.04457     -0.02848872     +0.82108624
From 117 observations 2020 Apr. 26-June 8, mean residual 0".7.

・ 星図

・ 光度変化

        m1 = 15.5 + 5 logΔ + 20.0 log r

---------------------------------------------------------------------

軌道要素はM.P.E.C. 2020-O07に掲載されたものです。
星図はステラナビゲータ Ver.10 (アストロアーツ) で作成したものです。
光度グラフはComet for Windowsで作成したものです。

---------------------------------------------------------------------

Copyright(C) Seiichi Yoshida (comet@aerith.net). All rights reserved.